ONEWEB-0134 (47280 NORAD) Tracking and Keplerian Element Data

This shows tracking and keplerian element data for the satellite.

Feedback or suggestion? Click here.




ElementValue
Catalog47280
NameONEWEB-0134
Epoch Orbit1701
Epoch Day105.91667824
Epoch Year2021
RAAN6.0902
Inclination87.9583
Eccentricity0.0002012
Argument of Perigee117.7855
Mean Anonmoly56.3539
Mean Motion13.28692414
Decay Rate-0.00032937
L11 47280U 20100Y 21105.91667824 -.00032937 00000-0 -72264-1 0 9994
L22 47280 87.9583 6.0902 0002012 117.7855 56.3539 13.28692414 17019

Live tracking and technical data element details for ONEWEB-0134 (NORAD 47280). ONEWEB-0134 can be tracked NOW for your location showing map with azimuth and elevation plus other details from your city location.

Track the satellite on the map from your city or location and see movement details for azimuth, elevation, latitude, longitude, range, height, and movement on the map or in text.







IsCatalogInMostPopularTable: catalog: 47280, numindb: 34
Update: records affected: 1



GetName: 47280 ONEWEB-0134

Hit Count: updated at: Fri, 16 Apr 2021 11:21:45 GMT